Location: *
(50.0228°S, 177.2688°W)
Time: 03:15:10
(UTC+00:00)

Cosmos 1939 Rocket - Pass Details

Date: 07 April 2020
Orbit: 533 x 584 km, 97.4° (Epoch: 04 June)

Event Time Altitude Azimuth Distance (km) Brightness Sun altitude
Rises 06:19:06 0° 155° (SSE) 2,854 6.2 -9.9°
Reaches altitude 10° 06:21:46 10° 138° (SE) 1,939 5.2 -10.3°
Maximum altitude 06:24:58 21° 89° (E) 1,358 4.2 -10.8°
Drops below altitude 10° 06:28:06 10° 40° (NE) 1,900 5.2 -11.3°
Sets 06:30:40 0° 23° (NNE) 2,780 6.2 -11.7°
